Location: Newark
(47.9617°N, 8.0103°E)
Time: 10:51:58
(UTC+00:00)

Envisat - Visible Passes

Search period start: 11 December 2019 00:00
Search period end: 21 December 2019 00:00
Orbit: 764 x 766 km, 98.1° (Epoch: 11 December)

Date Brightness Start Highest point End Pass type
(mag) Time Alt. Az. Time Alt. Az. Time Alt. Az.
11 Dec 4.7 05:43:47 10° NNE 05:48:31 37° E 05:53:10 10° SSE visible
11 Dec 2.9 17:01:35 10° SSE 17:06:37 68° ENE 17:11:41 10° N visible
11 Dec 5.7 18:42:45 10° SW 18:46:09 18° W 18:49:33 10° NW visible
12 Dec 5.9 05:07:54 10° NE 05:11:23 18° E 05:14:51 10° SE visible
12 Dec 3.6 16:25:29 10° SE 16:30:01 34° ENE 16:34:35 10° N visible
12 Dec 4.5 18:04:22 10° SSW 18:09:01 36° W 18:13:42 10° NNW visible
13 Dec 3.6 06:09:03 10° NNE 06:14:07 61° E 06:19:07 10° S visible
13 Dec 3.2 17:27:01 10° S 17:32:05 74° WSW 17:37:12 10° NNW visible
13 Dec 6.2 19:11:29 10° W 19:12:01 10° W 19:12:33 10° WNW visible
14 Dec 5.1 05:32:40 10° NNE 05:37:08 30° E 05:41:34 10° SSE visible
14 Dec 3.1 16:50:26 10° SSE 16:55:22 55° ENE 17:00:21 10° N visible
14 Dec 5.4 18:30:51 10° SW 18:34:44 22° W 18:38:39 10° NW visible
15 Dec 6.0 04:57:09 10° NE 04:59:58 15° E 05:02:45 10° ESE visible
15 Dec 3.8 16:14:33 10° ESE 16:18:50 28° ENE 16:23:08 10° N visible
15 Dec 4.1 17:52:50 10° S 17:57:41 44° W 18:02:33 10° NNW visible
16 Dec 4.1 05:57:50 10° NNE 06:02:48 49° E 06:07:42 10° S visible
16 Dec 3.0 17:15:43 10° SSE 17:20:48 90° E 17:25:56 10° NNW visible
16 Dec 6.0 18:58:14 10° WSW 19:00:33 13° W 19:02:53 10° WNW visible
17 Dec 5.4 05:21:38 10° NE 05:25:46 24° E 05:29:52 10° SSE visible
17 Dec 3.3 16:39:19 10° SE 16:44:09 45° ENE 16:48:58 10° N visible
17 Dec 5.1 18:19:04 10° SSW 18:23:21 27° W 18:27:39 10° NW visible
18 Dec 6.2 04:46:47 10° ENE 04:48:31 12° E 04:50:15 10° ESE visible
18 Dec 3.2 06:23:13 10° NNE 06:28:21 82° ESE 06:33:26 10° SSW visible
18 Dec 3.7 17:41:22 10° S 17:46:20 55° W 17:51:21 10° NNW visible
19 Dec 4.5 05:46:40 10° NNE 05:51:27 40° E 05:56:12 10° SSE visible
19 Dec 2.9 17:04:28 10° SSE 17:09:32 74° ENE 17:14:37 10° N visible
19 Dec 5.8 18:45:59 10° SW 18:49:07 16° W 18:52:17 10° NW visible
20 Dec 5.7 05:10:40 10° NE 05:14:22 20° E 05:18:02 10° SE visible
20 Dec 3.5 16:28:18 10° SE 16:32:55 37° ENE 16:37:34 10° N visible
20 Dec 4.7 18:07:25 10° SSW 18:11:58 33° W 18:16:34 10° NNW visible
